Weather Roundup
Issued by NWS

Home | Current Version | Previous Version | Text Only | Print | Product List | Glossary On
Versions: 1 2 3 4 5 6 7 8 9 10 11 12 13 14 15 16 17 18 19 20 21 22 23 24 25 26 27 28 29 30 31 32 33 34 35 36 37 38 39 40 41 42 43 44 45 46 47 48 49 50
000
NZUS93 KARX 111659
HRRWXR

CURRENT HOURLY OBSERVATIONS ACROSS
MUCH OF THE UPPER MISSISSIPPI VALLEY
NATIONAL WEATHER SERVICE LA CROSSE WI
1200 PM CDT FRI JUL 11 2014


...SOUTHEAST MINNESOTA...


CITY           SKY/WX    TMP DP  RH WIND       PRES   REMARKS
ROCHESTER      CLOUDY    64  59  83 SE15      30.03F
ROCHESTER/MAYO CLOUDY    63  60  90 SE14      30.02F
WINONA         LGT RAIN  63  61  94 SE6       30.09F
AUSTIN         CLOUDY    66  61  82 S7        30.04R
ALBERT LEA     CLOUDY    72  63  73 S13G20    30.01R
DODGE CENTER   CLOUDY    66  63  88 S14       30.03R
PRESTON        LGT RAIN  64  60  84 SE10      30.07F
OWATONNA       CLOUDY    72  63  73 SE13G18   30.01R
FARIBAULT      CLOUDY    73  63  68 SE7       30.01F
$$

...ELSEWHERE IN MINNESOTA...


CITY           SKY/WX    TMP DP  RH WIND       PRES   REMARKS
MINNEAPOLIS    PTSUNNY   69  64  84 S12G22    29.96F
INTNL FALLS    CLOUDY    73  67  81 SW9       29.84F
DULUTH         CLOUDY    68  64  87 SW13      29.93F
RED WING       RAIN      64  63  94 S12G20    29.96F
REDWOOD FALLS  CLOUDY    76  68  76 S15       29.93R
MANKATO        MOSUNNY   75  64  69 S13       29.99R
WORTHINGTON    CLOUDY    75  68  78 S17G23    30.00R
FAIRMONT       MOSUNNY   79  64  61 S15G22    29.99S
$$

...SOUTHWEST WISCONSIN...


CITY           SKY/WX    TMP DP  RH WIND       PRES   REMARKS
LA CROSSE      RAIN      67  62  84 SE8       30.11F
PRAIRIE DU CHI CLOUDY    70  56  61 SE3       30.14S
BOSCOBEL       LGT RAIN  70  60  70 CALM      30.16S
LONE ROCK      NOT AVBL
PLATTEVILLE    CLOUDY    69  61  74 SE8       30.18F
FORT MC COY    CLOUDY    68  57  68 S8        30.15S
VIROQUA        PTSUNNY   65  60  83 S7        30.16F
WIS DELLS      DRIZZLE   70  59  68 S5        30.18S
$$

...ELSEWHERE IN WISCONSIN...


CITY           SKY/WX    TMP DP  RH WIND       PRES   REMARKS
MILWAUKEE      PTSUNNY   76  59  55 E10       30.19R
MADISON        CLOUDY    76  55  48 S12G22    30.19R
GREEN BAY      PTSUNNY   77  60  55 S12       30.13S
EAU CLAIRE     NOT AVBL
BLACK RVR FLS  LGT RAIN  66  63  89 S10       30.08F
MEDFORD        CLOUDY    69  59  72 S17G24    30.11S
WAUSAU         CLOUDY    71  58  63 SW17G24   30.11R
WIS RAPIDS     CLOUDY    74  58  57 SW20G30   30.14F
MARSHFIELD     CLOUDY    72  59  63 S14G22    30.11F
RICE LAKE      CLOUDY    68  62  78 S14G21    30.03F
$$

...NORTHEAST IOWA...


CITY           SKY/WX    TMP DP  RH WIND       PRES   REMARKS
WATERLOO       CLOUDY    70  61  73 SE17      30.01F
DUBUQUE        CLOUDY    69  60  73 S10       30.16F
DECORAH          N/A    N/A N/A N/A MISG        N/A
MASON CITY     CLOUDY    75  66  73 S16G23    30.02S
CHARLES CITY   CLOUDY    70  63  78 SE10G18   30.05S
OELWEIN        CLOUDY    68  68 100 SE16      30.09F
$$

...ELSEWHERE IN IOWA...


CITY           SKY/WX    TMP DP  RH WIND       PRES   REMARKS
DES MOINES     CLOUDY    71  67  87 SE12      30.03F
IOWA CITY      PTSUNNY   78  65  63 SE13      30.12F
FORT DODGE     PTSUNNY   70  64  83 S12       29.99R
MARSHALLTOWN   CLOUDY    70  64  81 S12G20    30.04S
CEDAR RAPIDS   PTSUNNY   75  62  64 S9        30.10F
$$

...NORTHERN ILLINOIS...


CITY           SKY/WX    TMP DP  RH WIND       PRES   REMARKS
CHICAGO-OHARE  PTSUNNY   79  52  38 S10       30.19F
DUPAGE         SUNNY     79  55  43 S10       30.20S
CHICAGO-MIDWAY PTSUNNY   80  48  32 SE7       30.19F
MOLINE         MOSUNNY   78  61  55 SE12      30.15S
ROCKFORD       PTSUNNY   74  54  49 S12       30.21R
STERLING       CLOUDY    77  61  57 SW5       30.19R
PEORIA         MOSUNNY   80  61  52 S13       30.17F
$$

NOTE: "FAIR" INDICATES FEW OR NO CLOUDS BELOW 12,000 FEET WITH NO
SIGNIFICANT WEATHER AND/OR OBSTRUCTIONS TO VISIBILITY. WIND
SPEEDS ARE IN MILES-PER-HOUR.



USA.gov is the U.S. government's official web portal to all federal, state and local government web resources and services.